When you browse on this site, cookies collect data to enhance your experience and personalize the content and advertising you see.
Visit our Privacy Policy to learn more. By continuing to use the site, you agree to this use of cookies and data.
  • en Suisse
  • Liste des pays
  • À 7 jours
  • Température de l'eau
  • Carte météo
  • Widgets météo
  • user-avatar
    Se connecter

    Météo par heure à Graz

    Ce jour, 25 Février, Mardi

    Heure Température Précipitation Vent Pression Humidité
    00:00 +6°C° 0 mm 1 m/s 722 mmHg 92%
    01:00 +6°C° 0 mm 1 m/s 721 mmHg 90%
    02:00 +6°C° 0 mm 1 m/s 721 mmHg 91%
    03:00 +5°C° 0 mm 1 m/s 720 mmHg 91%
    04:00 +5°C° 0 mm 1 m/s 719 mmHg 92%
    05:00 +5°C° 0 mm 1 m/s 719 mmHg 92%
    06:00 +5°C° 0 mm 1 m/s 719 mmHg 92%
    07:00 +4°C° 0 mm 2 m/s 719 mmHg 89%
    08:00 +7°C° 0 mm 1 m/s 718 mmHg 83%
    09:00 +9°C° 0 mm 1 m/s 718 mmHg 77%
    10:00 +11°C° 0 mm 1 m/s 718 mmHg 70%
    11:00 +12°C° 0 mm 1 m/s 717 mmHg 66%
    12:00 +14°C° 0 mm 1 m/s 717 mmHg 63%
    13:00 +15°C° 0 mm 1 m/s 716 mmHg 59%
    14:00 +14°C° 0 mm 1 m/s 716 mmHg 59%
    15:00 +14°C° 0 mm 1 m/s 715 mmHg 60%
    16:00 +14°C° 0 mm 1 m/s 715 mmHg 60%
    17:00 +13°C° 0 mm 1 m/s 714 mmHg 67%
    18:00 +11°C° 0 mm 1 m/s 714 mmHg 73%
    19:00 +10°C° 0 mm 1 m/s 714 mmHg 80%
    20:00 +9°C° 0.1 mm 1 m/s 714 mmHg 82%
    21:00 +9°C° 0.1 mm 1 m/s 713 mmHg 84%
    22:00 +9°C° 0.1 mm 1 m/s 713 mmHg 86%
    23:00 +9°C° 0.3 mm 1 m/s 712 mmHg 87%

    Demain, 26 Février, Mercredi

    Heure Température Précipitation Vent Pression Humidité
    00:00 +8°C° 0.3 mm 1 m/s 712 mmHg 89%
    01:00 +7°C° 0.3 mm 0 m/s 712 mmHg 91%
    02:00 +8°C° 0.7 mm 1 m/s 711 mmHg 92%
    03:00 +8°C° 0.7 mm 1 m/s 710 mmHg 93%
    04:00 +8°C° 0.7 mm 1 m/s 709 mmHg 94%
    05:00 +7°C° 3 mm 1 m/s 709 mmHg 94%
    06:00 +6°C° 3 mm 1 m/s 709 mmHg 94%
    07:00 +4°C° 3 mm 2 m/s 708 mmHg 94%
    08:00 +5°C° 1.6 mm 1 m/s 709 mmHg 92%
    09:00 +5°C° 1.6 mm 1 m/s 709 mmHg 90%
    10:00 +5°C° 1.6 mm 1 m/s 709 mmHg 88%
    11:00 +5°C° 0.9 mm 1 m/s 709 mmHg 82%
    12:00 +5°C° 0.9 mm 1 m/s 710 mmHg 76%
    13:00 +4°C° 0.9 mm 2 m/s 710 mmHg 70%
    14:00 +4°C° 0.1 mm 2 m/s 710 mmHg 68%
    15:00 +4°C° 0.1 mm 2 m/s 710 mmHg 65%
    16:00 +5°C° 0.1 mm 1 m/s 710 mmHg 62%
    17:00 +5°C° 0.1 mm 1 m/s 711 mmHg 68%
    18:00 +3°C° 0.1 mm 2 m/s 711 mmHg 74%
    19:00 +2°C° 0.1 mm 2 m/s 711 mmHg 79%
    20:00 +2°C° 0 mm 2 m/s 712 mmHg 79%
    21:00 +1°C° 0 mm 2 m/s 712 mmHg 79%
    22:00 +1°C° 0 mm 2 m/s 713 mmHg 78%
    23:00 +1°C° 0 mm 2 m/s 713 mmHg 78%

    Après-demain, 27 Février, Jeudi

    Heure Température Précipitation Vent Pression Humidité
    00:00 -1°C° 0 mm 2 m/s 714 mmHg 78%
    01:00 -1°C° 0 mm 2 m/s 714 mmHg 77%
    02:00 -1°C° 0 mm 2 m/s 714 mmHg 78%
    03:00 -2°C° 0 mm 2 m/s 715 mmHg 79%
    04:00 0°C° 0 mm 1 m/s 715 mmHg 80%
    05:00 0°C° 0 mm 1 m/s 716 mmHg 79%
    06:00 -2°C° 0 mm 2 m/s 716 mmHg 79%
    07:00 -2°C° 0 mm 2 m/s 717 mmHg 79%
    08:00 +1°C° 0 mm 2 m/s 718 mmHg 70%
    09:00 +2°C° 0 mm 2 m/s 718 mmHg 62%
    10:00 +4°C° 0 mm 2 m/s 718 mmHg 53%
    11:00 +5°C° 0 mm 2 m/s 718 mmHg 52%
    12:00 +5°C° 0 mm 2 m/s 718 mmHg 50%
    13:00 +5°C° 0 mm 3 m/s 718 mmHg 49%
    14:00 +5°C° 0 mm 3 m/s 717 mmHg 51%
    15:00 +4°C° 0 mm 3 m/s 715 mmHg 54%
    16:00 +4°C° 0 mm 3 m/s 714 mmHg 56%
    17:00 +3°C° 0 mm 3 m/s 713 mmHg 61%
    18:00 +2°C° 0 mm 3 m/s 713 mmHg 66%
    19:00 +2°C° 0 mm 2 m/s 712 mmHg 70%
    20:00 +2°C° 0 mm 2 m/s 711 mmHg 72%
    21:00 +1°C° 0 mm 2 m/s 710 mmHg 74%
    22:00 +1°C° 0 mm 2 m/s 709 mmHg 76%
    23:00 +1°C° 0 mm 2 m/s 710 mmHg 76%

    28 Février, Vendredi

    Heure Température Précipitation Vent Pression Humidité
    00:00 -1°C° 0 mm 2 m/s 710 mmHg 77%
    01:00 -1°C° 0 mm 2 m/s 710 mmHg 77%
    02:00 -1°C° 0 mm 2 m/s 710 mmHg 77%
    03:00 -1°C° 0 mm 2 m/s 710 mmHg 78%
    04:00 -1°C° 0 mm 3 m/s 710 mmHg 78%
    05:00 -1°C° 0 mm 3 m/s 711 mmHg 76%
    06:00 -1°C° 0 mm 3 m/s 712 mmHg 74%
    07:00 -2°C° 0 mm 4 m/s 714 mmHg 72%
    08:00 0°C° 0 mm 5 m/s 715 mmHg 65%
    09:00 +1°C° 0 mm 6 m/s 717 mmHg 58%
    10:00 +2°C° 0 mm 8 m/s 718 mmHg 51%
    11:00 +2°C° 0 mm 8 m/s 719 mmHg 48%
    12:00 +3°C° 0 mm 7 m/s 720 mmHg 45%
    13:00 +4°C° 0 mm 7 m/s 721 mmHg 42%
    14:00 +4°C° 0 mm 6 m/s 721 mmHg 42%
    15:00 +3°C° 0 mm 5 m/s 722 mmHg 42%
    16:00 +4°C° 0 mm 4 m/s 722 mmHg 42%
    17:00 +3°C° 0 mm 3 m/s 722 mmHg 48%
    18:00 +2°C° 0 mm 2 m/s 723 mmHg 55%
    19:00 +2°C° 0 mm 1 m/s 723 mmHg 61%
    20:00 +1°C° 0 mm 1 m/s 724 mmHg 62%
    21:00 +1°C° 0 mm 1 m/s 724 mmHg 64%
    22:00 +1°C° 0 mm 1 m/s 725 mmHg 65%
    23:00 +1°C° 0 mm 1 m/s 725 mmHg 66%

    29 Février, Samedi

    Heure Température Précipitation Vent Pression Humidité
    00:00 0°C° 0 mm 1 m/s 725 mmHg 66%
    01:00 0°C° 0 mm 1 m/s 724 mmHg 67%
    02:00 0°C° 0 mm 1 m/s 724 mmHg 67%
    03:00 0°C° 0 mm 1 m/s 724 mmHg 67%
    04:00 0°C° 0 mm 1 m/s 723 mmHg 67%
    05:00 0°C° 0 mm 1 m/s 723 mmHg 67%
    06:00 0°C° 0 mm 1 m/s 723 mmHg 66%
    07:00 0°C° 0 mm 1 m/s 723 mmHg 65%
    08:00 +2°C° 0 mm 1 m/s 723 mmHg 60%
    09:00 +4°C° 0 mm 1 m/s 722 mmHg 54%
    10:00 +6°C° 0 mm 1 m/s 722 mmHg 49%
    11:00 +7°C° 0 mm 1 m/s 721 mmHg 49%
    12:00 +7°C° 0 mm 1 m/s 721 mmHg 49%
    13:00 +7°C° 0 mm 2 m/s 720 mmHg 49%
    14:00 +7°C° 0 mm 2 m/s 719 mmHg 53%
    15:00 +6°C° 0 mm 2 m/s 719 mmHg 56%
    16:00 +6°C° 0 mm 2 m/s 718 mmHg 60%
    17:00 +6°C° 0 mm 1 m/s 718 mmHg 66%
    18:00 +5°C° 0 mm 1 m/s 717 mmHg 72%
    19:00 +4°C° 0 mm 1 m/s 717 mmHg 78%
    20:00 +3°C° 0 mm 2 m/s 717 mmHg 80%
    21:00 +3°C° 0 mm 2 m/s 717 mmHg 82%
    22:00 +3°C° 0 mm 2 m/s 716 mmHg 84%
    23:00 +3°C° 0 mm 2 m/s 716 mmHg 84%

    1 Mars, Dimanche

    Heure Température Précipitation Vent Pression Humidité
    00:00 +2°C° 0 mm 2 m/s 716 mmHg 84%
    01:00 +2°C° 0 mm 2 m/s 716 mmHg 83%
    02:00 +2°C° 0 mm 2 m/s 717 mmHg 82%
    03:00 +2°C° 0 mm 2 m/s 717 mmHg 80%
    04:00 +3°C° 0 mm 1 m/s 717 mmHg 79%
    05:00 +3°C° 0.1 mm 1 m/s 717 mmHg 79%
    06:00 +3°C° 0.1 mm 1 m/s 718 mmHg 80%
    07:00 +4°C° 0.1 mm 1 m/s 718 mmHg 81%
    08:00 +4°C° 0.5 mm 1 m/s 719 mmHg 85%
    09:00 +4°C° 0.5 mm 1 m/s 719 mmHg 89%
    10:00 +5°C° 0.5 mm 1 m/s 719 mmHg 93%
    11:00 +5°C° 1 mm 1 m/s 719 mmHg 93%
    12:00 +5°C° 1 mm 1 m/s 719 mmHg 92%
    13:00 +5°C° 1 mm 1 m/s 719 mmHg 92%
    14:00 +4°C° 0.8 mm 1 m/s 718 mmHg 93%
    15:00 +4°C° 0.8 mm 1 m/s 718 mmHg 93%
    16:00 +4°C° 0.8 mm 1 m/s 718 mmHg 93%
    17:00 +3°C° 0.5 mm 0 m/s 718 mmHg 95%
    18:00 +3°C° 0.5 mm 0 m/s 718 mmHg 96%
    19:00 +2°C° 0.5 mm 0 m/s 718 mmHg 97%
    20:00 +2°C° 0.2 mm 0 m/s 718 mmHg 96%
    21:00 +2°C° 0.2 mm 0 m/s 718 mmHg 96%
    22:00 +2°C° 0.2 mm 0 m/s 718 mmHg 95%
    23:00 +2°C° 0 mm 1 m/s 718 mmHg 94%
    Voir plus